Location: Pasarilla del Rebollar
(40.6790°N, 5.0062°W)
Time: 11:13:45
(UTC+00:00)

Meteor 1-18 Rocket - Pass Details

Date: 22 April 2026
Orbit: 836 x 908 km, 81.2° (Epoch: 15 May)

Event Time Altitude Azimuth Distance (km) Brightness Sun altitude
Exits shadow 04:17:02 11° 200° (SSW) 2,418 6.1 -13.7°
Maximum altitude 04:22:26 64° 281° (WNW) 927 4.2 -12.8°
Drops below altitude 10° 04:27:57 10° 3° (N) 2,456 7.0 -11.9°
Sets 04:30:23 0° 7° (N) 3,394 7.9 -11.5°
